map of GXQ home
GXQ - Airport
Location
City:  Coyhaique, Aysén del General Carlos Ibáñez del Campo, Chile
Name:Teniente Vidal Airport
ICAO:SCCY
IATA:GXQ

Details
Type:Airport (Aerodrome, Airfield)
Use:Public/Civil
Latitude:45°35'37"S (-45.593610)
Longitude:72°06'19"W (-72.105277)
Elevation:1020 ft (311 m)
Variation:9.94°E (WMM2015 magnetic declination)
-0.10° annual change
Runways:1
Longest:5072 × 98 ft (1546 × 30 m), paved

Time
Time Zone:UTC-4 (DST-3)
Local Time:

Weather
METAR:SCCY 161500Z 26011G21KT 9999 SCT040 12/03 Q1010
TAF:SCCY 161020Z 1612/1624 27010G20KT 9999 SCT025 TN12/1612Z TX14/1619Z
BECMG 1616/1618 27010KT CAVOK
BECMG 1622/1624 27005KT

Related Locations
Nearby:
Farthest:MXW: 12361 mi / 19892 km
Mandalgovi (Mandalgobi) [Mandalgovi Airport], 059, MN

Find:

   beyond  
but within

Other Information
Maps:
NOTAMs:
Links:
Sources:

  
  • flag of Chile
  • flag of Aysén del General Carlos Ibáñez del Campo
  

Sectional Chart

Flight Planning
at skyvector.com

Satellite Image

Google Maps Satellite view

 

Copyright © 2004-2018 Karl L. Swartz. All rights reserved.
The Great Circle Mapper name and logo are trademarks of the Great Circle Mapper.
All other trademarks mentioned herein belong to their respective owners.
Please see credits for attibutions and further copyright information.

  Follow gcmap on Facebook Follow gcmap on Twitter Follow gcmap on Google+ GCmap on LinkedIn

hCard Microformat

Geo Microformat